(°C)
18°
17°
17°
17°
18°
19°
20°
(°C)
17°
16°
16°
16°
17°
17°
18°
NE
NE
NE
NE
NE
NE
NE
(km/h)
6-13
5-12
5-11
4-10
4-10
5-10
6-12
(mm)
0
0
0
0
0
0
0
(%)
0
0
0
0
0
0
0

Elevazione del sole

/ -13.4°
sun-icon
UV 4
05:07
20:15
Gibbosa crescente (144°)
19:10
00:52

METAR per 52.17°N 20.97°E (EPWA)

Ora Condizioni Temperatura/
Punto di rugiada
Vento Visibilità Meteo Nuvole Pressione Cambiamento Grezzo
VFR 18°C / 11°C 70º 5kt >10km - Clouds and Visibility OK 1026 No Significant change EPWA 090100Z 07005KT CAVOK 18/11 Q1026 NOSIG
VFR 19°C / 11°C 60º variable 010º to 110º 4kt >10km - Clouds and Visibility OK 1026 No Significant change EPWA 090030Z 06004KT 010V110 CAVOK 19/11 Q1026 NOSIG
VFR 19°C / 11°C 80º 6kt >10km - Clouds and Visibility OK 1025 No Significant change EPWA 090000Z 08006KT CAVOK 19/11 Q1025 NOSIG
VFR 19°C / 11°C 80º 5kt >10km - Clouds and Visibility OK 1025 No Significant change EPWA 082330Z 08005KT CAVOK 19/11 Q1025 NOSIG
VFR 19°C / 11°C 80º 5kt >10km - Clouds and Visibility OK 1025 No Significant change EPWA 082300Z 08005KT CAVOK 19/11 Q1025 NOSIG
VFR 19°C / 11°C 90º 6kt >10km - Clouds and Visibility OK 1025 No Significant change EPWA 082230Z 09006KT CAVOK 19/11 Q1025 NOSIG
VFR 20°C / 11°C 80º 6kt >10km - Clouds and Visibility OK 1025 No Significant change EPWA 082200Z 08006KT CAVOK 20/11 Q1025 NOSIG
VFR 20°C / 11°C 90º 8kt >10km - Clouds and Visibility OK 1025 No Significant change EPWA 082130Z 09008KT CAVOK 20/11 Q1025 NOSIG
VFR 21°C / 11°C 70º variable 030º to 090º 8kt >10km - Clouds and Visibility OK 1025 No Significant change EPWA 082100Z 07008KT 030V090 CAVOK 21/11 Q1025 NOSIG
VFR 21°C / 11°C 60º 8kt >10km - Clouds and Visibility OK 1025 No Significant change EPWA 082030Z 06008KT CAVOK 21/11 Q1025 NOSIG
VFR 21°C / 11°C 50º 7kt >10km - Clouds and Visibility OK 1025 No Significant change EPWA 082000Z 05007KT CAVOK 21/11 Q1025 NOSIG
VFR 21°C / 11°C 50º 7kt >10km - Clouds and Visibility OK 1025 No Significant change EPWA 081930Z 05007KT CAVOK 21/11 Q1025 NOSIG
VFR 21°C / 10°C 50º variable 020º to 080º 7kt >10km - Clouds and Visibility OK 1025 No Significant change EPWA 081900Z 05007KT 020V080 CAVOK 21/10 Q1025 NOSIG
VFR 22°C / 10°C 50º variable 360º to 080º 7kt >10km - Clouds and Visibility OK 1024 No Significant change EPWA 081830Z 05007KT 360V080 CAVOK 22/10 Q1024 NOSIG
VFR 22°C / 10°C 60º 8kt >10km - Clouds and Visibility OK 1024 No Significant change EPWA 081800Z 06008KT CAVOK 22/10 Q1024 NOSIG
VFR 23°C / 10°C 50º variable 020º to 100º 7kt >10km - Clouds and Visibility OK 1024 No Significant change EPWA 081730Z 05007KT 020V100 CAVOK 23/10 Q1024 NOSIG
VFR 23°C / 9°C 20º variable 350º to 070º 5kt >10km - Clouds and Visibility OK 1024 No Significant change EPWA 081700Z 02005KT 350V070 CAVOK 23/09 Q1024 NOSIG
VFR 23°C / 9°C variable 2kt >10km - Clouds and Visibility OK 1024 No Significant change EPWA 081630Z VRB02KT CAVOK 23/09 Q1024 NOSIG
VFR 23°C / 9°C 70º variable 030º to 100º 5kt >10km - Clouds and Visibility OK 1024 No Significant change EPWA 081600Z 07005KT 030V100 CAVOK 23/09 Q1024 NOSIG
VFR 23°C / 9°C 40º variable 010º to 080º 6kt >10km - Clouds and Visibility OK 1024 No Significant change EPWA 081530Z 04006KT 010V080 CAVOK 23/09 Q1024 NOSIG
VFR 23°C / 9°C 50º variable 020º to 080º 8kt >10km - Clouds and Visibility OK 1024 No Significant change EPWA 081500Z 05008KT 020V080 CAVOK 23/09 Q1024 NOSIG
VFR 24°C / 10°C 40º variable 350º to 120º 5kt >10km - Clouds and Visibility OK 1024 No Significant change EPWA 081430Z 04005KT 350V120 CAVOK 24/10 Q1024 NOSIG
VFR 24°C / 8°C 60º variable 010º to 110º 4kt >10km - Clouds and Visibility OK 1024 No Significant change EPWA 081400Z 06004KT 010V110 CAVOK 24/08 Q1024 NOSIG
VFR 23°C / 9°C 30º variable 350º to 100º 5kt >10km - Clouds and Visibility OK 1024 No Significant change EPWA 081330Z 03005KT 350V100 CAVOK 23/09 Q1024 NOSIG

VFR

18°C / 11°C

[Più]
Vento 70º 5kt
Visibilità >10km
Meteo -
Nuvole Clouds and Visibility OK
Pressione 1026
Cambiamento No Significant change
Grezzo EPWA 090100Z 07005KT CAVOK 18/11 Q1026 NOSIG

VFR

19°C / 11°C

[Più]
Vento 60º variable 010º to 110º 4kt
Visibilità >10km
Meteo -
Nuvole Clouds and Visibility OK
Pressione 1026
Cambiamento No Significant change
Grezzo EPWA 090030Z 06004KT 010V110 CAVOK 19/11 Q1026 NOSIG

VFR

19°C / 11°C

[Più]
Vento 80º 6kt
Visibilità >10km
Meteo -
Nuvole Clouds and Visibility OK
Pressione 1025
Cambiamento No Significant change
Grezzo EPWA 090000Z 08006KT CAVOK 19/11 Q1025 NOSIG

VFR

19°C / 11°C

[Più]
Vento 80º 5kt
Visibilità >10km
Meteo -
Nuvole Clouds and Visibility OK
Pressione 1025
Cambiamento No Significant change
Grezzo EPWA 082330Z 08005KT CAVOK 19/11 Q1025 NOSIG

VFR

19°C / 11°C

[Più]
Vento 80º 5kt
Visibilità >10km
Meteo -
Nuvole Clouds and Visibility OK
Pressione 1025
Cambiamento No Significant change
Grezzo EPWA 082300Z 08005KT CAVOK 19/11 Q1025 NOSIG

VFR

19°C / 11°C

[Più]
Vento 90º 6kt
Visibilità >10km
Meteo -
Nuvole Clouds and Visibility OK
Pressione 1025
Cambiamento No Significant change
Grezzo EPWA 082230Z 09006KT CAVOK 19/11 Q1025 NOSIG

VFR

20°C / 11°C

[Più]
Vento 80º 6kt
Visibilità >10km
Meteo -
Nuvole Clouds and Visibility OK
Pressione 1025
Cambiamento No Significant change
Grezzo EPWA 082200Z 08006KT CAVOK 20/11 Q1025 NOSIG

VFR

20°C / 11°C

[Più]
Vento 90º 8kt
Visibilità >10km
Meteo -
Nuvole Clouds and Visibility OK
Pressione 1025
Cambiamento No Significant change
Grezzo EPWA 082130Z 09008KT CAVOK 20/11 Q1025 NOSIG

VFR

21°C / 11°C

[Più]
Vento 70º variable 030º to 090º 8kt
Visibilità >10km
Meteo -
Nuvole Clouds and Visibility OK
Pressione 1025
Cambiamento No Significant change
Grezzo EPWA 082100Z 07008KT 030V090 CAVOK 21/11 Q1025 NOSIG

VFR

21°C / 11°C

[Più]
Vento 60º 8kt
Visibilità >10km
Meteo -
Nuvole Clouds and Visibility OK
Pressione 1025
Cambiamento No Significant change
Grezzo EPWA 082030Z 06008KT CAVOK 21/11 Q1025 NOSIG

VFR

21°C / 11°C

[Più]
Vento 50º 7kt
Visibilità >10km
Meteo -
Nuvole Clouds and Visibility OK
Pressione 1025
Cambiamento No Significant change
Grezzo EPWA 082000Z 05007KT CAVOK 21/11 Q1025 NOSIG

VFR

21°C / 11°C

[Più]
Vento 50º 7kt
Visibilità >10km
Meteo -
Nuvole Clouds and Visibility OK
Pressione 1025
Cambiamento No Significant change
Grezzo EPWA 081930Z 05007KT CAVOK 21/11 Q1025 NOSIG

VFR

21°C / 10°C

[Più]
Vento 50º variable 020º to 080º 7kt
Visibilità >10km
Meteo -
Nuvole Clouds and Visibility OK
Pressione 1025
Cambiamento No Significant change
Grezzo EPWA 081900Z 05007KT 020V080 CAVOK 21/10 Q1025 NOSIG

VFR

22°C / 10°C

[Più]
Vento 50º variable 360º to 080º 7kt
Visibilità >10km
Meteo -
Nuvole Clouds and Visibility OK
Pressione 1024
Cambiamento No Significant change
Grezzo EPWA 081830Z 05007KT 360V080 CAVOK 22/10 Q1024 NOSIG

VFR

22°C / 10°C

[Più]
Vento 60º 8kt
Visibilità >10km
Meteo -
Nuvole Clouds and Visibility OK
Pressione 1024
Cambiamento No Significant change
Grezzo EPWA 081800Z 06008KT CAVOK 22/10 Q1024 NOSIG

VFR

23°C / 10°C

[Più]
Vento 50º variable 020º to 100º 7kt
Visibilità >10km
Meteo -
Nuvole Clouds and Visibility OK
Pressione 1024
Cambiamento No Significant change
Grezzo EPWA 081730Z 05007KT 020V100 CAVOK 23/10 Q1024 NOSIG

VFR

23°C / 9°C

[Più]
Vento 20º variable 350º to 070º 5kt
Visibilità >10km
Meteo -
Nuvole Clouds and Visibility OK
Pressione 1024
Cambiamento No Significant change
Grezzo EPWA 081700Z 02005KT 350V070 CAVOK 23/09 Q1024 NOSIG

VFR

23°C / 9°C

[Più]
Vento variable 2kt
Visibilità >10km
Meteo -
Nuvole Clouds and Visibility OK
Pressione 1024
Cambiamento No Significant change
Grezzo EPWA 081630Z VRB02KT CAVOK 23/09 Q1024 NOSIG

VFR

23°C / 9°C

[Più]
Vento 70º variable 030º to 100º 5kt
Visibilità >10km
Meteo -
Nuvole Clouds and Visibility OK
Pressione 1024
Cambiamento No Significant change
Grezzo EPWA 081600Z 07005KT 030V100 CAVOK 23/09 Q1024 NOSIG

VFR

23°C / 9°C

[Più]
Vento 40º variable 010º to 080º 6kt
Visibilità >10km
Meteo -
Nuvole Clouds and Visibility OK
Pressione 1024
Cambiamento No Significant change
Grezzo EPWA 081530Z 04006KT 010V080 CAVOK 23/09 Q1024 NOSIG

VFR

23°C / 9°C

[Più]
Vento 50º variable 020º to 080º 8kt
Visibilità >10km
Meteo -
Nuvole Clouds and Visibility OK
Pressione 1024
Cambiamento No Significant change
Grezzo EPWA 081500Z 05008KT 020V080 CAVOK 23/09 Q1024 NOSIG

VFR

24°C / 10°C

[Più]
Vento 40º variable 350º to 120º 5kt
Visibilità >10km
Meteo -
Nuvole Clouds and Visibility OK
Pressione 1024
Cambiamento No Significant change
Grezzo EPWA 081430Z 04005KT 350V120 CAVOK 24/10 Q1024 NOSIG

VFR

24°C / 8°C

[Più]
Vento 60º variable 010º to 110º 4kt
Visibilità >10km
Meteo -
Nuvole Clouds and Visibility OK
Pressione 1024
Cambiamento No Significant change
Grezzo EPWA 081400Z 06004KT 010V110 CAVOK 24/08 Q1024 NOSIG

VFR

23°C / 9°C

[Più]
Vento 30º variable 350º to 100º 5kt
Visibilità >10km
Meteo -
Nuvole Clouds and Visibility OK
Pressione 1024
Cambiamento No Significant change
Grezzo EPWA 081330Z 03005KT 350V100 CAVOK 23/09 Q1024 NOSIG

TAF per 52.17°N 20.97°E (EPWA)

From till


From till Wind 80º 6kt. Visibility 10km or more. Nil Significant Cloud.
Temporarly from till Light Showers Rain . Scattered Clouds 4000ft.
Becoming from till Wind 10º 10kt. Visibility 10km or more. Nil Significant Cloud.
With 30% probability, Temporarly from till Thunderstorm Rain .

Grezzo: TAF EPWA 082330Z 0900/0924 08006KT CAVOK BECMG 0909/0912 01010KT TEMPO 0909/0921 -SHRA SCT040CB PROB30 TEMPO 0913/0919 TSRA

Radar e nowcasting per 52.17°N 20.97°E

Pioviggine
Lieve
Moderato
Forte
Molto forte
Grandine

Il segnaposto è situato a 52.17°N 20.97°E. Questa animazione mostra il radar delle precipitazioni per l'ultima ora, nonché una previsione 1h. Una pioviggine o una leggera caduta di neve potrebbero essere invisibili per il radar. L'intensità delle precipitazioni è codificata a colori, dal blu chiaro all'arancione.

Tempo in atto per 52.17°N 20.97°E: immagine satellitare e pioggia

Il segnaposto è situato a 52.17°N 20.97°E. [Più]

L'immagine satellitare in tempo reale combina la luce visibile durante il giorno con la radiazione infrarossa durante la notte. Di notte l'immagine non è scura poiché i raggi infrarossi possono rilevare differenze di temperatura. Purtroppo, le nuvole basse e la nebbia sono difficili da distinguere dalla temperatura del suolo e possono pertanto essere quasi invisibili durante la notte. Le immagini satellitari Meteosat per l'Europa vengono aggiornate in tempo reale ogni 5 minuti. Le immagini GOES-16 / GOES-17 (Nord e Sud America) e Himawari (Asia) vengono aggiornate ogni 10 minuti.

Le precipitazioni sono stimate da radar e satellite. I calcoli delle precipitazioni dai satelliti sono meno accurate di notte che durante il giorno. Le croci arancioni identificano i fulmini caduti (in Europa).

Copyright 2022 EUMETSAT / meteoblue. Fulminazioni fornite da nowcast.

Tornare su